Location: 22
(39.7117°N, 89.5929°W)
Time: 15:48:31
(UTC-05:00)

Tiros 1 despin weight - Pass Details

Date: 15 August 2024
Orbit: 573 x 617 km, 48.2° (Epoch: 17 September)

Event Time Altitude Azimuth Distance (km) Brightness Sun altitude
Rises 20:25:07 0° 301° (WNW) 2,796 ? -6.5°
Reaches altitude 10° 20:27:30 10° 309° (NW) 1,889 ? -6.9°
Maximum altitude 20:31:37 42° 21° (NNE) 828 ? -7.6°
Drops below altitude 10° 20:35:41 10° 92° (E) 1,873 ? -8.3°
Enters shadow 20:35:55 - 93° (E) 1,958 ? -8.4°
